FW9262 Weather Reports


time (UTC)temp
C
wind
direction
speed
KPH
gust
KPH
rain 1hr
cm
rain 24hr
cm
rain mn
cm
humidity
%
barometer
mb
20260904003043 22 253 8.0 11.3 0.00 0.00 0.00 74 1014.3
20260904002539 22 292 4.8 9.7 0.00 0.00 0.00 75 1014.3
20260904002038 23 306 8.0 11.3 0.00 0.00 0.00 72 1014.6
20260904001535 23 317 1.6 6.4 0.00 0.00 0.00 71 1014.6
20260904001033 23 215 4.8 4.8 0.00 0.00 0.00 70 1014.6
20260904000533 23 218 4.8 9.7 0.00 0.00 0.00 70 1014.6
20260904000029 24 246 4.8 6.4 0.00 0.00 0.00 68 1014.6
20260903235524 23 268 4.8 9.7 0.00 0.00 0.00 72 1014.6
20260903235019 23 284 4.8 9.7 0.00 0.00 0.00 70 1014.6
20260903234515 23 255 8.0 11.3 0.00 0.00 0.00 71 1014.6
20260903234010 24 263 4.8 9.7 0.00 0.00 0.00 70 1014.9
20260903233506 24 341 0.0 3.2 0.00 0.00 0.00 71 1014.9
20260903233001 23 313 4.8 11.3 0.00 0.00 0.00 72 1014.9
20260903232457 24 225 4.8 9.7 0.00 0.00 0.00 71 1014.9
20260903231956 24 217 9.7 11.3 0.00 0.00 0.00 69 1014.9
20260903231451 24 246 4.8 9.7 0.00 0.00 0.00 70 1014.9
20260903230945 25 224 6.4 9.7 0.00 0.00 0.00 69 1014.9
20260903230442 23 238 3.2 9.7 0.00 0.00 0.00 71 1014.9
20260903225938 25 265 4.8 9.7 0.00 0.00 0.00 68 1015.3
20260903225433 24 246 4.8 12.9 0.00 0.00 0.00 70 1014.9
20260903224929 24 335 4.8 11.3 0.00 0.00 0.00 70 1014.9
20260903224425 24 203 6.4 11.3 0.00 0.00 0.00 71 1015.3
20260903223921 25 315 1.6 9.7 0.00 0.00 0.00 70 1015.3
20260903223420 25 199 6.4 9.7 0.00 0.00 0.00 68 1015.3
20260903222919 25 287 1.6 6.4 0.00 0.00 0.00 69 1015.3
20260903222415 25 325 3.2 6.4 0.00 0.00 0.00 69 1015.6
20260903221915 25 328 1.6 9.7 0.00 0.00 0.00 68 1015.3
20260903221414 24 200 3.2 9.7 0.00 0.00 0.00 70 1015.3
20260903220912 24 259 4.8 6.4 0.00 0.00 0.00 69 1015.6
20260903220406 24 218 6.4 11.3 0.00 0.00 0.00 70 1015.6
20260903215904 25 209 6.4 11.3 0.00 0.00 0.00 69 1016.0
20260903215401 25 221 4.8 11.3 0.00 0.00 0.00 69 1015.6
20260903214859 25 257 1.6 6.4 0.00 0.00 0.00 70 1015.6
20260903214355 25 347 3.2 6.4 0.00 0.00 0.00 69 1016.0
20260903213854 24 270 4.8 11.3 0.00 0.00 0.00 71 1015.6
20260903213349 24 267 8.0 11.3 0.00 0.00 0.00 70 1016.0
20260903212846 25 322 4.8 9.7 0.00 0.00 0.00 69 1015.6
20260903212342 24 234 6.4 14.5 0.00 0.00 0.00 70 1016.0
20260903211841 24 295 4.8 11.3 0.00 0.00 0.00 69 1016.0
20260903211337 24 262 1.6 11.3 0.00 0.00 0.00 70 1015.6
20260903210833 24 342 6.4 12.9 0.00 0.00 0.00 69 1015.6
20260903210327 24 318 6.4 12.9 0.00 0.00 0.00 69 1015.6
20260903205822 24 244 6.4 11.3 0.00 0.00 0.00 69 1016.0
20260903205322 24 228 8.0 12.9 0.00 0.00 0.00 69 1016.3
20260903204817 24 203 9.7 12.9 0.00 0.00 0.00 69 1016.0
20260903204313 25 320 6.4 11.3 0.00 0.00 0.00 69 1016.0
20260903203808 24 252 9.7 14.5 0.00 0.00 0.00 69 1016.0
20260903203304 24 188 6.4 11.3 0.00 0.00 0.00 69 1016.3
20260903202803 24 222 6.4 11.3 0.00 0.00 0.00 69 1016.0
20260903202300 24 188 9.7 11.3 0.00 0.00 0.00 68 1016.0
20260903201759 25 203 3.2 9.7 0.00 0.00 0.00 69 1016.0
20260903201254 25 255 4.8 12.9 0.00 0.00 0.00 67 1016.0
20260903200753 25 295 4.8 12.9 0.00 0.00 0.00 68 1016.0
20260903200248 24 222 4.8 12.9 0.00 0.00 0.00 68 1016.0
20260903195743 25 218 6.4 11.3 0.00 0.00 0.00 67 1016.0
20260903195240 25 191 3.2 11.3 0.00 0.00 0.00 66 1016.0
20260903194739 25 274 4.8 11.3 0.00 0.00 0.00 66 1016.3
20260903194235 25 152 8.0 14.5 0.00 0.00 0.00 67 1016.3
20260903193730 25 241 6.4 9.7 0.00 0.00 0.00 66 1016.3
20260903193226 25 146 4.8 12.9 0.00 0.00 0.00 67 1016.3
20260903192722 25 261 6.4 6.4 0.00 0.00 0.00 66 1016.6
20260903192217 24 298 3.2 6.4 0.00 0.00 0.00 67 1016.6
20260903191713 25 248 9.7 11.3 0.00 0.00 0.00 68 1016.6
20260903191209 25 320 8.0 11.3 0.00 0.00 0.00 67 1017.0
20260903190703 25 282 4.8 11.3 0.00 0.00 0.00 66 1016.6
20260903190203 25 289 4.8 9.7 0.00 0.00 0.00 66 1016.6
20260903185658 25 174 4.8 12.9 0.00 0.00 0.00 67 1016.6
20260903185152 25 325 3.2 6.4 0.00 0.00 0.00 66 1017.0
20260903184649 25 280 4.8 9.7 0.00 0.00 0.00 67 1017.0
20260903184145 25 250 6.4 11.3 0.00 0.00 0.00 67 1017.0
20260903183643 25 252 3.2 6.4 0.00 0.00 0.00 66 1017.0
20260903183139 25 184 4.8 6.4 0.00 0.00 0.00 67 1017.0
20260903182638 25 210 4.8 4.8 0.00 0.00 0.00 66 1017.0
20260903182134 25 249 3.2 11.3 0.00 0.00 0.00 67 1017.0
20260903181632 25 180 3.2 6.4 0.00 0.00 0.00 65 1017.0
20260903181127 25 72 3.2 6.4 0.00 0.00 0.00 66 1017.0
20260903180622 25 266 4.8 11.3 0.00 0.00 0.00 64 1017.0
20260903180116 25 315 0.0 3.2 0.00 0.00 0.00 66 1017.3
20260903175616 25 252 4.8 4.8 0.00 0.00 0.00 66 1017.0
20260903175115 25 248 1.6 3.2 0.00 0.00 0.00 63 1017.3
20260903174610 25 325 0.0 4.8 0.00 0.00 0.00 64 1017.0
20260903174105 25 339 1.6 3.2 0.00 0.00 0.00 62 1017.0
20260903173600 25 262 3.2 9.7 0.00 0.00 0.00 64 1017.3
20260903173056 25 286 1.6 3.2 0.00 0.00 0.00 64 1017.3
20260903172556 25 350 0.0 4.8 0.00 0.00 0.00 66 1017.3
20260903172052 25 316 1.6 6.4 0.00 0.00 0.00 65 1017.3
20260903171551 24 31 3.2 4.8 0.00 0.00 0.00 66 1017.3
20260903171047 24 348 1.6 3.2 0.00 0.00 0.00 65 1017.3
20260903170546 24 37 1.6 4.8 0.00 0.00 0.00 67 1017.3
20260903170042 23 13 1.6 3.2 0.00 0.00 0.00 70 1017.6
20260903165538 22 225 3.2 3.2 0.00 0.00 0.00 72 1017.3
20260903165034 22 32 0.0 3.2 0.00 0.00 0.00 73 1017.3
20260903164535 22 215 4.8 6.4 0.00 0.00 0.00 72 1017.3
20260903164031 22 80 1.6 4.8 0.00 0.00 0.00 72 1017.0
20260903163525 22 75 1.6 3.2 0.00 0.00 0.00 74 1017.3
20260903163021 22 328 0.0 1.6 0.00 0.00 0.00 75 1017.0
20260903162518 21 234 0.0 3.2 0.00 0.00 0.00 75 1017.3
20260903162013 21 35 3.2 4.8 0.00 0.00 0.00 75 1017.0
20260903161508 21 264 1.6 3.2 0.00 0.00 0.00 76 1017.3
20260903161004 21 340 0.0 1.6 0.00 0.00 0.00 76 1017.3
20260903160503 21 18 1.6 3.2 0.00 0.00 0.00 76 1017.3
20260903155957 21 343 0.0 1.6 0.00 0.00 0.00 76 1017.3
20260903155456 21 41 0.0 1.6 0.00 0.00 0.00 77 1017.3
20260903154953 21 329 0.0 0.0 0.00 0.00 0.00 77 1017.3
20260903154448 21 6 1.6 3.2 0.00 0.00 0.00 77 1017.0
20260903153944 21 9 0.0 0.0 0.00 0.00 0.00 77 1017.3
20260903153439 22 285 1.6 3.2 0.00 0.00 0.00 76 1017.3
20260903152936 22 346 0.0 1.6 0.00 0.00 0.00 75 1017.0
20260903152431 22 96 1.6 4.8 0.00 0.00 0.00 74 1017.3
20260903151927 22 238 0.0 3.2 0.00 0.00 0.00 76 1017.0
20260903151421 22 336 0.0 1.6 0.00 0.00 0.00 76 1017.0
20260903150916 22 294 3.2 4.8 0.00 0.00 0.00 76 1017.0
20260903150411 22 129 1.6 4.8 0.00 0.00 0.00 75 1017.3
20260903145905 22 90 0.0 1.6 0.00 0.00 0.00 76 1017.0
20260903145401 22 3 0.0 1.6 0.00 0.00 0.00 76 1017.0
20260903144900 22 56 1.6 3.2 0.00 0.00 0.00 75 1017.0
20260903144355 22 24 0.0 1.6 0.00 0.00 0.00 78 1017.0
20260903143850 22 307 1.6 1.6 0.00 0.00 0.00 77 1017.0
20260903143347 22 349 0.0 0.0 0.00 0.00 0.00 78 1016.6
20260903142842 21 346 0.0 1.6 0.00 0.00 0.00 79 1017.0
20260903142338 21 17 0.0 1.6 0.00 0.00 0.00 80 1017.0
20260903141834 21 3 0.0 1.6 0.00 0.00 0.00 82 1017.0
20260903141329 20 13 0.0 0.0 0.00 0.00 0.00 84 1016.6
20260903140824 20 352 0.0 0.0 0.00 0.00 0.00 86 1016.6
20260903140319 20 6 0.0 0.0 0.00 0.00 0.00 87 1016.6
20260903135815 19 354 0.0 1.6 0.00 0.00 0.00 87 1016.6
20260903135310 19 354 1.6 1.6 0.00 0.00 0.00 88 1016.6
20260903134809 19 22 1.6 1.6 0.00 0.00 0.00 88 1016.6
20260903134305 19 57 0.0 1.6 0.00 0.00 0.00 88 1016.6
20260903133802 19 10 0.0 3.2 0.00 0.00 0.00 88 1016.3
20260903133259 19 68 1.6 3.2 0.00 0.00 0.00 88 1016.6
20260903132758 19 347 0.0 3.2 0.00 0.00 0.00 88 1016.3
20260903132254 19 68 1.6 1.6 0.00 0.00 0.00 88 1016.6
20260903131749 19 346 0.0 1.6 0.00 0.00 0.00 88 1016.6
20260903131248 19 55 1.6 3.2 0.00 0.00 0.00 88 1016.6
20260903130743 19 1 0.0 1.6 0.00 0.00 0.00 88 1016.6
20260903130238 19 351 0.0 3.2 0.00 0.00 0.00 88 1016.6
20260903125736 19 343 0.0 1.6 0.00 0.00 0.00 88 1016.6
20260903125232 19 41 1.6 3.2 0.00 0.00 0.00 88 1016.6
20260903124731 19 51 3.2 4.8 0.00 0.00 0.00 88 1016.6
20260903124226 19 358 3.2 4.8 0.00 0.00 0.00 88 1016.3
20260903123725 19 48 3.2 3.2 0.00 0.00 0.00 88 1016.3
20260903123224 19 13 1.6 3.2 0.00 0.00 0.00 88 1016.3
20260903122723 19 345 0.0 1.6 0.00 0.00 0.00 88 1016.3
20260903122218 19 353 0.0 3.2 0.00 0.00 0.00 88 1016.6
20260903121716 19 354 0.0 1.6 0.00 0.00 0.00 88 1016.6
20260903121213 19 331 0.0 3.2 0.00 0.00 0.00 88 1016.6
20260903120712 19 346 0.0 1.6 0.00 0.00 0.00 88 1016.3
20260903120206 19 329 1.6 1.6 0.00 0.00 0.00 88 1016.6
20260903115705 19 37 1.6 4.8 0.00 0.00 0.00 88 1016.3
20260903115201 19 345 0.0 3.2 0.00 0.00 0.00 88 1016.6
20260903114655 19 70 3.2 3.2 0.00 0.00 0.00 88 1016.6
20260903114150 19 19 0.0 1.6 0.00 0.00 0.00 88 1016.6
20260903113645 19 12 0.0 3.2 0.00 0.00 0.00 88 1016.6
20260903113142 19 8 3.2 3.2 0.00 0.00 0.00 88 1016.3
20260903112637 19 350 1.6 3.2 0.00 0.00 0.00 89 1016.6
20260903112132 19 16 3.2 3.2 0.00 0.00 0.00 89 1016.6
20260903111631 19 36 1.6 1.6 0.00 0.00 0.00 89 1016.6
20260903111127 18 1 0.0 1.6 0.00 0.00 0.00 89 1016.3
20260903110623 18 43 1.6 4.8 0.00 0.00 0.00 89 1016.3
20260903110118 18 359 0.0 4.8 0.00 0.00 0.00 89 1017.0
20260903105612 18 6 1.6 3.2 0.00 0.00 0.00 89 1017.0
20260903105102 18 28 1.6 3.2 0.00 0.00 0.00 89 1016.6
20260903104602 18 28 1.6 3.2 0.00 0.00 0.00 89 1016.6
20260903104057 18 47 3.2 3.2 0.00 0.00 0.00 89 1017.0
20260903103553 18 28 0.0 3.2 0.00 0.00 0.00 89 1016.6
20260903103049 18 357 0.0 1.6 0.00 0.00 0.00 88 1017.0
20260903102544 18 52 3.2 3.2 0.00 0.00 0.00 88 1016.6
20260903102043 18 18 3.2 3.2 0.00 0.00 0.00 88 1016.6
20260903101538 18 3 1.6 3.2 0.00 0.00 0.00 88 1017.0
20260903101034 18 35 1.6 3.2 0.00 0.00 0.00 87 1016.6
20260903100533 18 76 1.6 3.2 0.00 0.00 0.00 87 1016.6
20260903100032 18 36 1.6 3.2 0.00 0.00 0.00 86 1017.0
20260903095531 18 54 3.2 3.2 0.00 0.00 0.00 85 1016.6
20260903095025 18 27 1.6 1.6 0.00 0.00 0.00 85 1016.6
20260903094520 18 28 1.6 3.2 0.00 0.00 0.00 84 1016.6
20260903094016 18 39 1.6 1.6 0.00 0.00 0.00 84 1016.6
20260903093516 18 348 0.0 0.0 0.00 0.00 0.00 83 1017.0
20260903093011 18 12 0.0 1.6 0.00 0.00 0.00 83 1017.0
20260903092510 18 346 1.6 3.2 0.00 0.00 0.00 83 1017.0
20260903092005 18 340 0.0 0.0 0.00 0.00 0.00 83 1017.0
20260903091503 18 352 0.0 3.2 0.00 0.00 0.00 83 1017.0
20260903090958 18 349 0.0 0.0 0.00 0.00 0.00 83 1017.0
20260903090454 18 350 0.0 1.6 0.00 0.00 0.00 83 1017.0
20260903085952 18 339 0.0 0.0 0.00 0.00 0.00 83 1017.0
20260903085450 18 338 0.0 0.0 0.00 0.00 0.00 82 1017.0
20260903084946 18 352 0.0 0.0 0.00 0.00 0.00 82 1017.3
20260903084444 18 335 0.0 1.6 0.00 0.00 0.00 82 1017.3
20260903083939 18 345 0.0 1.6 0.00 0.00 0.00 82 1017.3
20260903083436 18 341 0.0 0.0 0.00 0.00 0.00 82 1017.0
20260903082935 18 342 0.0 1.6 0.00 0.00 0.00 82 1017.0
20260903082429 18 338 0.0 1.6 0.00 0.00 0.00 82 1017.6
20260903081924 18 345 0.0 1.6 0.00 0.00 0.00 82 1017.3
20260903081420 18 348 0.0 0.0 0.00 0.00 0.00 83 1017.6
20260903080916 18 340 0.0 0.0 0.00 0.00 0.00 83 1017.3
20260903080412 18 342 0.0 0.0 0.00 0.00 0.00 83 1017.6
20260903075908 18 349 0.0 0.0 0.00 0.00 0.00 84 1017.6
20260903075403 18 338 0.0 0.0 0.00 0.00 0.00 84 1017.6
20260903074903 18 337 0.0 0.0 0.00 0.00 0.00 84 1017.6
20260903074357 19 336 0.0 0.0 0.00 0.00 0.00 84 1017.6
20260903073852 19 336 0.0 0.0 0.00 0.00 0.00 84 1017.3
20260903073347 19 342 0.0 0.0 0.00 0.00 0.00 83 1017.6
20260903072843 19 337 0.0 0.0 0.00 0.00 0.00 83 1017.6
20260903072339 20 341 0.0 1.6 0.00 0.00 0.00 83 1017.0
20260903071836 20 356 0.0 1.6 0.00 0.00 0.00 83 1017.3
20260903071332 20 349 0.0 0.0 0.00 0.00 0.00 83 1017.3
20260903070826 20 344 0.0 0.0 0.00 0.00 0.00 82 1017.3
20260903070322 20 347 0.0 0.0 0.00 0.00 0.00 82 1017.3
20260903065816 20 345 0.0 1.6 0.00 0.00 0.00 82 1017.3
20260903065316 20 15 3.2 3.2 0.00 0.00 0.00 82 1017.3
20260903064815 20 358 1.6 4.8 0.00 0.00 0.00 82 1017.3
20260903064310 20 354 0.0 3.2 0.00 0.00 0.00 82 1017.3
20260903063807 20 343 0.0 1.6 0.00 0.00 0.00 82 1017.3
20260903063302 20 350 1.6 1.6 0.00 0.00 0.00 81 1017.0
20260903062757 20 347 0.0 3.2 0.00 0.00 0.00 81 1017.3
20260903062256 20 32 3.2 3.2 0.00 0.00 0.00 81 1017.3
20260903061753 20 49 1.6 4.8 0.00 0.00 0.00 81 1017.3
20260903061252 20 8 1.6 3.2 0.00 0.00 0.00 81 1017.3
20260903060748 20 15 1.6 3.2 0.00 0.00 0.00 80 1017.3
20260903060247 20 27 1.6 1.6 0.00 0.00 0.00 80 1017.3
20260903055745 20 21 1.6 3.2 0.00 0.00 0.00 80 1017.3
20260903055244 20 15 0.0 1.6 0.00 0.00 0.00 79 1017.0
20260903054739 20 355 0.0 0.0 0.00 0.00 0.00 79 1017.0
20260903054234 20 357 0.0 0.0 0.00 0.00 0.00 79 1017.0
20260903053730 20 3 0.0 1.6 0.00 0.00 0.00 79 1017.0
20260903053225 20 14 0.0 1.6 0.00 0.00 0.00 79 1017.0
20260903052720 20 346 0.0 1.6 0.00 0.00 0.00 80 1017.0
20260903052216 20 352 0.0 0.0 0.00 0.00 0.00 80 1017.0
20260903051711 20 352 0.0 1.6 0.00 0.00 0.00 80 1017.3
20260903051206 20 346 0.0 0.0 0.00 0.00 0.00 80 1017.0
20260903050702 20 347 0.0 1.6 0.00 0.00 0.00 80 1017.0
20260903050201 20 359 0.0 0.0 0.00 0.00 0.00 80 1017.3
20260903045656 20 346 0.0 1.6 0.00 0.00 0.00 80 1017.0
20260903045152 20 9 0.0 0.0 0.00 0.00 0.00 80 1017.0
20260903044648 20 349 0.0 0.0 0.00 0.00 0.00 80 1017.0
20260903044143 20 358 1.6 1.6 0.00 0.00 0.00 80 1017.0
20260903043641 20 345 0.0 1.6 0.00 0.00 0.00 80 1017.0
20260903043139 20 344 0.0 0.0 0.00 0.00 0.00 80 1017.0
20260903042638 20 348 0.0 1.6 0.00 0.00 0.00 80 1017.0
20260903042133 20 347 0.0 1.6 0.00 0.00 0.00 80 1017.0
20260903041630 20 6 1.6 1.6 0.00 0.00 0.00 80 1017.0
20260903041126 20 18 1.6 3.2 0.00 0.00 0.00 81 1017.0
20260903040624 20 343 0.0 1.6 0.00 0.00 0.00 81 1017.0
20260903040121 21 8 1.6 1.6 0.00 0.00 0.00 81 1017.0
20260903035616 21 353 1.6 3.2 0.00 0.00 0.00 81 1017.0
20260903035112 21 350 1.6 3.2 0.00 0.00 0.00 81 1017.0
20260903034607 21 49 0.0 3.2 0.00 0.00 0.00 81 1016.6
20260903034102 21 11 1.6 1.6 0.00 0.00 0.00 81 1016.6
20260903033557 21 40 1.6 4.8 0.00 0.00 0.00 81 1016.6
20260903033052 21 39 3.2 3.2 0.00 0.00 0.00 81 1016.6
20260903032547 21 3 0.0 1.6 0.00 0.00 0.00 81 1016.3
20260903032043 21 44 0.0 3.2 0.00 0.00 0.00 81 1016.6
20260903031542 21 35 1.6 1.6 0.00 0.00 0.00 80 1016.3
20260903031037 21 36 0.0 3.2 0.00 0.00 0.00 80 1016.3
20260903030533 21 354 0.0 0.0 0.00 0.00 0.00 79 1016.3
20260903030029 21 335 0.0 0.0 0.00 0.00 0.00 79 1016.3
20260903025523 21 342 0.0 3.2 0.00 0.00 0.00 78 1016.6
20260903025020 21 264 0.0 1.6 0.00 0.00 0.00 76 1016.3
20260903024513 21 256 3.2 3.2 0.00 0.00 0.00 75 1016.6
20260903024007 21 317 0.0 1.6 0.00 0.00 0.00 74 1016.6
20260903023503 21 322 0.0 3.2 0.00 0.00 0.00 73 1016.6
20260903022958 21 349 1.6 3.2 0.00 0.00 0.00 72 1016.3
20260903022457 21 326 1.6 4.8 0.00 0.00 0.00 72 1016.6
20260903021955 21 323 3.2 3.2 0.00 0.00 0.00 71 1016.6
20260903021451 21 178 1.6 4.8 0.00 0.00 0.00 70 1016.3
20260903020946 21 290 1.6 3.2 0.00 0.00 0.00 70 1016.6
20260903020441 22 318 3.2 6.4 0.00 0.00 0.00 70 1016.6
20260903015936 22 235 0.0 1.6 0.00 0.00 0.00 69 1016.6
20260903015432 22 261 4.8 6.4 0.00 0.00 0.00 68 1016.3
20260903014927 22 291 1.6 4.8 0.00 0.00 0.00 66 1016.6
20260903014426 22 300 4.8 6.4 0.00 0.00 0.00 65 1016.3
20260903013922 22 323 4.8 12.9 0.00 0.00 0.00 65 1016.6
20260903013421 22 290 1.6 6.4 0.00 0.00 0.00 67 1016.6
20260903012921 22 293 1.6 4.8 0.00 0.00 0.00 68 1017.0
20260903012420 22 271 3.2 6.4 0.00 0.00 0.00 69 1016.6
20260903011919 22 6 4.8 6.4 0.00 0.00 0.00 69 1017.0
20260903011414 22 298 1.6 3.2 0.00 0.00 0.00 68 1016.6
20260903010909 22 326 1.6 3.2 0.00 0.00 0.00 68 1016.6
20260903010405 22 333 1.6 4.8 0.00 0.00 0.00 69 1017.0
20260903005902 22 235 3.2 6.4 0.00 0.00 0.00 70 1016.6
20260903005358 22 300 0.0 3.2 0.00 0.00 0.00 70 1017.0
20260903004854 22 253 3.2 9.7 0.00 0.00 0.00 71 1016.6
20260903004349 22 288 4.8 11.3 0.00 0.00 0.00 72 1016.6
20260903003845 23 315 3.2 9.7 0.00 0.00 0.00 71 1017.0